Flag for Germany Weather past 2 weeks in Melsungen, Hesse, Germany

Now
61 °F

Passing clouds.


Feels Like: 61 °F
Forecast: 42 / 66 °F
Wind: 2 mph from Southeast

Location: Fritzlar

Current Time: May 22, 2015 at 1:10:24 PM

Latest Report: May 22, 2015 at 12:00 PM


Visibility: 13 mi

Pressure: 30.31 "Hg

Humidity: 50%

Dew point: 42 °F

Location of MelsungenLocation

Historic Weather in Melsungen — Graph

°F

Melsungen temperature yesterday

Maximum temperature yesterday: 60 °F (at 6:00 PM)
Minimum temperature yesterday: 38 °F (at 6:00 AM)
Average temperature yesterday: 49 °F

Past Weeks' High & Low Weather Summary

 TemperatureHumidityPressure
High80 °F (May 12, 4:00 PM)96% (May 12, 6:00 AM)30.36 "Hg (May 12, 6:00 AM)
Low38 °F (May 16, 5:00 AM)34% (May 10, 7:00 PM)29.65 "Hg (May 19, 3:00 AM)
Average54 °F66%30.07 "Hg
* Reported May 7 11:00 AM — May 22 11:00 AM, Melsungen, Weather by CustomWeather, © 2015

Note: Actual official high and low records may vary slightly from our data, if they occured in-between our weather recording intervals... More about our weather records

Advertising

Melsungen weather history for previous 24 hours

 ConditionsComfort  
Time TempWeatherWind HumidityBarometerVisibility
11:00 AM
Fri, May 22
58 °FPartly sunny.2 mph54%30.33 "Hg16 mi
10:00 AM54 °FScattered clouds.1 mph60%30.34 "Hg16 mi
9:00 AM51 °FPassing clouds.N/A70%30.34 "Hg16 mi
8:00 AM46 °FScattered clouds.N/A84%30.36 "Hg16 mi
7:00 AM41 °FPassing clouds.1 mph92%30.36 "Hg16 mi
6:00 AM38 °FFog.1 mph93%30.35 "Hg19 mi
5:00 AM41 °FPassing clouds.No wind93%30.35 "Hg19 mi
4:00 AM43 °FOvercast.1 mph86%30.35 "Hg12 mi
3:00 AM44 °FOvercast.1 mph87%30.36 "Hg12 mi
2:00 AM44 °FOvercast.1 mph85%30.35 "Hg12 mi
1:00 AM44 °FOvercast.N/A86%30.35 "Hg19 mi
12:00 AM45 °FOvercast.2 mph83%30.35 "Hg19 mi
10:00 PM
Thu, May 21
48 °FPassing clouds.1 mph77%30.33 "Hg19 mi
9:00 PM56 °FScattered clouds.2 mph46%30.30 "Hg19 mi
8:00 PM59 °FPassing clouds.3 mph38%30.28 "Hg19 mi
7:00 PM60 °FPassing clouds.3 mph40%30.27 "Hg19 mi
6:00 PM60 °FScattered clouds.5 mph38%30.27 "Hg16 mi
5:00 PM60 °FScattered clouds.5 mph37%30.26 "Hg19 mi
4:00 PM58 °FScattered clouds.5 mph44%30.27 "Hg19 mi
3:00 PM56 °FPartly sunny.3 mph45%30.27 "Hg19 mi
2:00 PM55 °FPartly sunny.2 mph47%30.27 "Hg19 mi
1:00 PM53 °FOvercast.6 mph54%30.28 "Hg25 mi
Weather by CustomWeather, © 2015

See weather overviewHow to use our weather pages